Hourly Data Report for February 20, 2020

All times are specified in Local Standard Time (LST). Add 1 hour to adjust for Daylight Saving Time where and when it is observed.

YARMOUTH A
NOVA SCOTIA
Current Station Operator: NAVCAN

43°49'37.000" N
66°05'17.000" W
42.90 m
8206495
71603
YQI

Download Data

Hourly Data (February 2020)
Hourly Data Report for February 20, 2020
TIME Temp Definition
°C
Dew Point Definition
°C
Rel Hum Definition
%
Wind Dir Definition
10's deg

Wind Spd Definition
km/h
Visibility Definition
km
Stn Press Definition
kPa
Hmdx Definition


Wind Chill Definition


Weather Definition


00:00 -3.6 -12.5 50 31 40 24.1 101.68   -12 LegendNANA
01:00 -4.1 -12.2 54 33 32 24.1 101.76   -12 LegendNANA
02:00 -4.8 -13.1 53 32 39 24.1 101.83   -14 Mostly Cloudy
03:00 -5.5 -13.5 53 32 39 24.1 101.86   -15 LegendNANA
04:00 -6.2 -14.2 53 32 33 24.1 101.89   -15 LegendNANA
05:00 -6.5 -14.6 53 31 37 24.1 101.95   -16 Cloudy
06:00 -7.3 -15.9 51 31 36 24.1 102.00   -17 LegendNANA
07:00 -7.8 -16.0 52 32 32 24.1 102.02   -17 LegendNANA
08:00 -7.7 -15.1 56 31 28 24.1 102.07   -16 Mostly Cloudy
09:00 -7.3 -14.8 55 31 31 24.1 102.16   -16 LegendNANA
10:00 -7.7 -14.7 57 32 36 19.3 102.21   -17 Snow Showers
11:00 -7.4 -15.1 54 32 28 19.3 102.27   -16 Snow Showers
12:00 -7.7 -14.8 57 32 31 19.3 102.27   -17 Snow Showers
13:00 -8.2 -15.5 56 31 39 19.3 102.21   -18 Snow Showers
14:00 -7.8 -15.7 53 31 35 19.3 102.11   -17 Snow Showers
15:00 -7.2 -15.7 51 30 35 19.3 102.10   -16 Snow Showers
16:00 -7.4 -15.9 51 31 32 24.1 102.07   -16 LegendNANA
17:00 -7.0 -15.5 51 31 30 24.1 102.08   -16 Mostly Cloudy
18:00 -6.8 -15.0 52 31 28 24.1 102.13   -15 LegendNANA
19:00 -6.3 -14.5 53 31 28 24.1 102.19   -14 LegendNANA
20:00 -5.7 -14.7 49 31 28 19.3 102.21   -14 Snow Showers
21:00 -5.6 -14.3 51 31 27 19.3 102.24   -13 Snow Showers
22:00 -6.2 -12.4 62 34 20 19.3 102.28   -13 Snow Showers
23:00 -6.6 -15.9 48 34 23 24.1 102.33   -14 Mostly Cloudy

Notes on Data Quality.

Legend

  • E = Estimated
  • M = Missing
  • NA = Not Available*
  • [empty] = Indicates an unobserved value
Date modified: